Wind_Speed
12 12 12 12 12 12 12 12 12 12 12 12 12 12 12 12 12 12 12 12 12 13 12 12 13 13 13 13 14 14 14 14 13 13 12 14 15 14 14 14 14 14 13 13 13 14 14 13 12 11 11 11 12 12 13 14 14 15 17 19 19 18 15 12 13 15 16 16 16 17 19 21 19 19 22 24 23 24 25 24 22 22 21 21 20 20 20 20
13 13 13 13 13 13 13 13 13 14 14 14 14 14 14 14 14 14 14 14 14 14 14 14 14 14 15 15 15 15 16 15 15 15 14 15 16 16 17 17 17 16 16 16 16 16 16 15 14 14 14 13 13 14 15 15 16 17 18 21 21 17 15 13 14 16 17 18 19 19 19 21 20 20 23 25 24 24 25 23 22 23 20 20 21 21 22 22
15 15 14 14 14 14 14 15 15 15 15 15 15 16 16 16 17 17 16 16 16 16 16 15 15 16 16 16 16 17 17 16 16 16 16 16 16 17 18 18 18 18 18 17 18 19 18 18 17 17 17 16 15 16 17 17 18 19 20 23 20 16 17 16 16 17 18 20 22 21 21 21 19 21 24 26 26 24 20 19 21 22 20 19 22 23 24 24
16 16 16 16 16 16 16 16 16 16 16 17 17 17 18 18 19 19 19 18 18 18 17 17 17 17 17 16 17 17 18 17 16 17 17 16 16 16 17 18 18 19 19 19 20 20 20 20 20 20 20 19 18 18 18 17 19 22 24 24 21 19 22 18 16 19 20 22 24 23 22 21 20 22 24 25 28 23 14 17 22 23 22 21 23 25 26 26
17 17 17 17 17 17 17 17 17 17 18 18 18 19 19 20 20 20 20 20 20 20 20 19 19 19 18 18 18 18 19 16 15 16 15 15 15 15 15 15 16 17 18 19 20 21 22 22 22 22 23 21 20 21 20 18 21 26 26 24 22 22 25 20 17 20 22 23 24 23 23 24 22 22 24 26 30 22 15 21 25 24 23 22 24 26 27 28
19 19 19 19 19 19 18 19 19 19 19 19 20 20 21 21 21 21 22 22 22 21 21 21 21 21 20 20 20 20 20 16 13 15 15 15 15 15 15 16 17 17 18 19 19 21 22 23 24 24 25 24 24 24 22 20 22 27 28 26 24 24 26 24 21 22 23 25 24 23 24 26 25 23 25 29 29 21 17 23 25 23 22 22 26 27 28 29
20 20 20 20 20 20 20 20 20 20 20 20 21 21 22 22 23 23 23 23 23 23 23 22 22 22 22 22 21 22 23 18 16 19 19 19 19 18 19 19 19 20 20 20 20 21 23 24 26 25 27 28 27 26 25 24 25 28 29 27 25 25 28 26 26 26 26 26 25 25 26 27 26 26 29 32 28 21 17 21 23 23 23 25 28 28 28 28
22 21 22 21 22 21 21 21 21 21 21 22 22 22 23 24 24 24 24 24 24 25 25 24 24 23 23 24 23 25 25 20 18 21 21 21 20 19 20 21 21 21 21 21 21 22 24 26 27 27 29 29 28 28 28 27 28 30 30 28 28 29 29 28 30 30 29 29 28 28 28 27 26 29 35 34 27 20 17 21 23 24 26 28 30 30 29 27
23 23 23 23 23 23 23 23 23 23 23 23 23 24 24 25 25 25 25 25 25 26 26 26 26 25 25 25 25 28 24 19 20 21 21 20 20 19 20 21 21 21 21 21 22 22 24 25 25 26 28 28 29 30 29 30 31 32 30 30 31 32 31 31 32 33 33 32 31 32 31 29 28 32 39 35 25 20 20 23 24 24 26 27 29 30 28 26
25 25 25 25 25 25 25 24 24 24 24 24 24 25 25 26 27 27 27 27 27 27 27 27 27 26 27 25 28 30 22 19 22 22 22 21 21 21 22 22 23 23 23 23 23 23 23 23 23 24 26 29 30 30 30 31 32 32 32 33 34 34 34 34 35 35 36 35 35 35 33 31 31 36 42 35 27 25 25 26 26 26 26 26 27 27 27 27
27 26 26 26 26 26 26 25 25 25 25 25 26 26 26 27 28 28 28 28 28 29 28 29 28 29 28 28 31 30 22 22 25 24 24 24 23 24 25 26 26 25 26 26 25 25 25 25 25 25 25 28 29 30 31 32 33 33 34 36 35 36 37 37 38 37 38 37 37 38 37 36 35 39 43 36 31 30 29 29 28 31 31 28 28 27 28 29
29 29 28 28 28 28 28 27 27 27 27 26 27 27 27 28 28 29 29 29 29 30 30 30 30 30 31 31 32 29 25 26 27 26 25 24 25 26 27 28 28 27 28 28 27 27 28 28 28 27 25 27 29 29 31 32 32 32 33 36 37 38 39 39 40 39 40 40 39 40 39 39 38 41 42 37 34 33 33 34 32 33 33 32 33 33 32 31
29 30 30 30 30 30 30 30 29 29 29 28 29 29 29 29 29 29 29 30 30 30 31 31 32 32 33 33 30 28 28 28 27 26 25 25 26 26 27 29 29 29 30 29 29 29 30 30 29 28 27 28 29 30 33 34 34 34 35 37 40 42 41 40 39 40 41 41 42 40 39 42 43 41 41 37 36 36 38 39 36 35 36 37 37 38 37 36
28 29 29 30 30 30 31 31 30 30 30 31 31 31 31 31 31 31 31 31 31 32 32 32 32 33 35 35 30 29 30 29 28 27 26 26 26 26 28 29 30 30 30 30 30 30 31 31 30 29 28 29 29 31 35 36 36 36 37 39 41 42 42 40 39 41 43 44 45 42 41 47 47 43 42 40 39 41 43 43 42 42 42 41 40 40 41 39
26 27 27 28 28 29 29 30 30 30 30 31 31 31 32 32 32 32 32 33 33 33 33 33 34 35 37 36 31 31 30 29 28 26 27 26 25 26 27 29 29 30 30 30 30 30 31 31 30 29 28 28 28 31 36 36 35 35 37 40 40 41 43 43 39 40 44 45 46 43 42 49 50 45 44 43 44 45 47 49 48 47 45 44 43 42 43 43
26 26 26 26 27 27 28 28 28 28 29 29 29 30 30 30 30 31 31 32 32 33 33 34 34 35 38 36 33 31 29 28 28 27 27 26 26 27 28 30 30 30 29 29 29 30 32 32 29 28 27 27 27 32 36 34 34 37 38 40 40 41 44 44 41 38 41 46 49 46 47 51 51 49 47 46 48 48 49 50 49 48 48 47 47 46 45 45
27 26 26 26 25 26 26 25 26 25 26 26 27 27 27 27 28 28 28 29 29 30 31 32 33 35 36 34 32 31 29 29 28 28 27 27 27 28 29 29 29 29 29 30 30 31 33 32 31 30 30 28 29 34 33 29 34 39 39 41 41 40 42 44 43 40 40 46 49 50 53 57 56 52 49 47 47 49 49 50 50 50 50 49 49 48 47 46
28 27 26 26 26 26 25 25 25 24 24 25 25 26 26 26 27 27 27 28 28 29 30 31 30 32 31 29 28 28 27 28 29 28 28 29 30 30 31 30 30 32 33 33 34 34 33 32 32 29 29 29 30 34 33 31 36 40 40 41 41 40 41 43 44 42 41 46 50 52 56 59 57 54 50 47 45 48 50 50 51 51 51 51 51 49 48 47
29 28 28 27 27 27 26 26 25 26 25 25 27 27 28 28 28 29 28 28 29 28 30 30 29 31 31 29 29 29 29 30 31 31 30 31 32 34 35 36 37 37 37 36 36 37 35 34 34 32 33 36 35 37 38 38 39 39 40 41 42 43 44 44 45 42 40 46 50 50 56 59 57 54 51 49 46 48 51 52 53 52 51 51 50 50 48 47
30 30 29 29 29 29 28 28 28 28 27 27 29 29 30 31 32 31 31 31 31 30 32 32 33 34 34 33 32 32 32 32 31 31 32 32 33 35 36 38 40 39 38 38 38 38 37 40 42 40 40 40 38 37 39 39 37 37 39 41 43 45 47 45 43 40 38 47 53 50 55 58 56 54 51 49 48 48 50 51 53 52 50 49 47 47 46 44
31 31 31 31 31 31 30 30 30 30 30 30 30 31 32 33 34 35 35 36 33 33 34 33 35 37 35 33 32 32 34 34 33 33 34 34 34 36 37 38 40 40 39 37 38 39 41 45 46 44 42 40 38 37 38 38 36 36 38 40 43 45 48 46 42 41 38 46 55 50 53 59 55 54 51 48 49 50 49 49 50 48 45 44 43 42 42 39
31 31 31 32 32 32 32 32 31 32 32 32 32 33 33 34 35 36 39 41 37 34 35 34 35 37 33 30 32 32 34 35 33 33 34 35 36 36 37 39 40 40 38 36 38 41 45 49 47 42 40 37 36 34 33 34 34 35 36 39 44 45 47 49 45 43 39 44 53 50 54 60 55 53 52 49 49 48 44 43 43 44 43 42 41 39 38 38
31 31 31 32 32 32 32 32 32 33 33 34 34 35 35 35 36 36 39 43 41 36 34 34 35 36 33 31 32 32 34 36 35 34 33 35 36 36 38 39 39 40 39 38 40 43 46 47 43 38 37 36 35 32 31 33 36 38 39 41 46 44 45 50 48 44 41 43 49 50 57 63 56 53 49 41 41 42 41 43 42 42 43 42 40 37 36 36
31 31 30 31 31 32 32 32 33 33 33 34 34 34 34 34 33 34 36 41 45 40 35 36 38 37 33 29 28 29 32 32 30 29 28 32 35 35 37 37 38 40 41 40 41 45 48 44 42 40 40 40 40 38 35 36 41 45 45 43 46 46 45 49 47 43 42 43 43 44 53 60 45 34 34 33 40 47 45 45 43 42 41 36 33 30 28 28
31 31 30 30 30 31 31 32 32 32 32 31 30 30 29 29 29 32 35 39 45 44 38 36 36 32 26 21 19 20 22 20 19 19 19 23 28 31 34 34 36 39 39 38 39 45 46 41 40 41 42 41 41 42 37 35 42 48 47 42 43 45 44 43 40 38 39 36 32 28 29 37 25 15 30 44 48 49 45 43 42 37 27 17 18 21 19 17
30 30 30 30 30 30 30 30 30 29 28 27 27 27 27 28 29 31 34 38 44 43 33 24 20 18 14 10 9 10 14 14 13 13 13 16 19 23 29 30 32 34 34 35 36 40 41 35 34 35 36 35 34 36 33 31 38 45 44 38 38 40 39 38 34 32 30 26 25 19 12 26 37 31 35 46 47 45 41 35 27 16 6 10 20 24 21 16
32 30 30 30 29 29 28 27 27 28 28 26 27 27 28 29 30 31 31 29 30 27 14 4 5 9 10 9 11 14 15 14 14 15 15 16 17 20 26 28 28 29 30 31 32 34 33 30 30 29 28 27 27 27 26 25 32 40 38 34 34 34 34 33 29 27 29 32 34 27 16 24 44 43 36 42 40 32 26 13 4 4 10 21 23 16 12 11
35 33 32 31 30 29 28 28 29 30 29 29 29 29 30 30 31 30 22 12 11 10 4 5 7 13 15 14 16 19 18 19 19 18 18 18 20 21 22 24 23 25 27 28 34 35 31 30 31 30 28 27 27 26 25 24 28 33 33 32 34 32 33 33 31 30 31 34 29 17 10 13 34 52 42 32 22 12 7 5 4 15 23 22 13 8 8 8
36 36 35 33 33 31 30 30 31 32 32 31 30 30 30 29 29 25 13 7 9 9 9 12 14 17 18 19 20 21 20 21 20 19 18 18 19 19 19 19 20 23 25 28 36 37 31 31 32 31 31 29 27 25 26 26 26 28 28 31 32 31 33 31 32 33 26 25 19 7 7 7 28 54 35 13 10 3 4 3 13 28 21 11 7 8 11 14
35 36 35 35 36 32 32 32 32 34 32 30 29 29 28 27 25 17 9 12 13 12 17 18 16 18 21 22 21 19 18 18 19 19 19 19 19 18 18 18 19 24 28 30 36 36 31 31 32 32 31 27 25 24 26 26 26 28 27 30 31 31 34 31 32 30 14 16 22 15 14 10 18 36 17 3 7 4 9 12 30 28 11 5 7 11 18 24
32 33 32 34 35 32 33 32 29 30 27 25 26 26 26 24 20 10 8 17 18 18 22 18 14 15 15 15 16 15 17 18 20 20 19 19 18 17 18 19 20 24 28 31 33 32 30 30 31 33 31 28 27 25 27 27 27 29 29 30 28 23 24 21 20 16 3 11 26 22 19 15 17 23 11 4 9 8 17 32 31 17 9 11 18 20 24 25
33 33 33 34 33 32 33 31 28 27 25 23 21 22 23 18 18 22 23 22 13 9 12 9 8 10 9 12 14 14 16 18 19 19 18 18 19 22 24 25 24 23 24 28 30 31 34 36 35 36 37 32 28 27 28 27 26 28 30 29 18 9 10 7 4 4 6 16 28 18 11 17 32 43 35 29 29 26 31 29 18 14 16 23 26 21 20 20
35 36 36 36 35 34 35 33 31 28 25 24 20 20 19 11 16 31 34 26 14 9 13 12 12 13 13 16 17 16 18 18 19 20 21 24 28 31 29 27 26 24 24 27 28 30 34 37 35 35 36 32 28 26 24 23 22 23 25 24 13 4 3 4 3 3 6 19 26 17 12 17 34 44 38 31 26 21 19 13 14 24 27 25 23 18 17 19
37 37 37 38 38 37 38 37 34 31 26 25 22 18 16 16 24 31 28 27 24 22 25 25 23 23 24 27 27 26 25 24 25 26 28 29 30 31 29 26 26 26 27 27 27 26 23 26 27 24 23 26 27 23 19 22 24 24 26 23 18 17 11 7 5 5 8 15 15 10 10 12 24 31 28 21 18 18 20 20 27 36 29 18 15 14 17 23
38 38 38 38 39 39 39 38 36 33 29 28 25 19 21 29 35 35 30 30 28 26 30 32 32 32 34 35 34 31 27 24 24 25 27 28 29 30 30 29 27 27 26 23 23 22 19 25 32 26 21 24 25 22 20 21 21 23 24 21 23 29 28 21 19 22 20 12 9 12 15 24 38 47 46 40 38 37 35 36 36 31 22 15 15 16 16 20
39 38 39 39 39 37 34 33 31 29 29 28 25 27 37 43 40 35 31 28 25 24 25 26 28 30 32 31 29 26 23 21 20 21 24 27 30 33 33 31 28 27 27 26 26 22 19 28 38 33 26 25 26 27 28 25 21 18 19 25 31 34 33 28 22 26 23 10 13 23 27 36 43 47 49 45 39 35 28 27 26 19 16 18 19 19 15 14
38 39 40 40 38 34 29 28 28 29 29 28 30 38 48 51 47 44 39 34 32 27 24 23 22 22 22 19 19 19 16 16 17 19 22 23 24 27 30 29 28 28 29 30 30 27 26 33 41 41 37 35 34 35 36 35 33 27 27 36 37 26 25 25 12 9 12 8 13 23 30 36 30 29 39 33 21 19 17 18 22 19 19 22 22 20 15 14
37 38 40 40 36 32 29 27 29 31 31 32 37 44 48 48 48 47 44 42 40 34 31 29 26 25 24 23 26 25 20 18 16 18 22 22 20 21 25 27 27 27 28 27 28 28 28 30 37 42 42 37 34 35 37 38 39 37 37 40 35 22 18 21 13 5 8 7 7 15 26 32 30 37 51 47 36 32 28 27 33 31 27 27 24 20 16 18
35 36 39 39 34 30 28 26 27 30 32 35 40 43 45 46 46 45 43 43 42 38 37 36 33 31 31 33 36 34 30 27 23 22 24 22 21 22 23 23 24 25 27 28 29 30 27 21 24 35 38 35 32 33 39 41 39 38 38 37 38 35 28 25 20 12 10 9 8 11 15 19 32 46 55 56 54 46 36 34 35 33 29 25 20 17 20 22
32 33 38 37 31 29 27 25 27 31 35 40 43 45 46 46 45 45 44 42 41 39 38 38 36 34 35 37 37 36 36 33 30 28 27 26 28 30 29 31 32 30 29 28 26 25 25 21 22 30 34 36 37 37 40 41 36 33 34 33 35 38 36 28 24 24 20 11 6 8 9 15 32 46 52 58 58 48 39 34 31 32 31 27 24 26 31 32
29 32 37 34 29 28 26 26 29 34 40 45 47 48 49 48 48 49 46 43 41 39 38 37 36 36 36 36 37 36 35 33 33 33 33 34 36 36 36 37 36 30 28 29 27 24 25 24 26 29 31 38 44 44 42 39 35 32 30 30 30 32 32 21 15 26 31 21 14 12 10 16 31 44 52 59 57 49 44 40 38 40 38 36 38 41 45 47
30 33 34 30 27 25 25 29 32 35 41 45 46 47 48 47 48 48 47 46 43 41 40 39 39 40 39 39 40 39 36 35 36 36 37 40 40 39 40 39 36 30 30 34 33 31 31 30 31 32 34 42 48 47 44 42 42 38 32 32 32 30 31 23 14 22 31 29 28 23 15 16 30 45 54 57 57 53 50 49 49 50 48 47 50 52 53 55
32 33 31 29 28 23 23 29 33 36 41 43 43 43 44 44 45 45 45 46 43 40 41 42 42 41 40 40 39 37 36 36 37 38 39 40 41 42 41 38 36 33 32 35 34 34 33 31 33 36 36 41 45 44 45 45 46 46 42 43 43 40 42 40 35 34 30 25 25 19 12 13 23 39 51 54 54 54 52 53 53 53 55 57 59 59 57 57
31 32 31 31 30 26 28 32 35 38 41 41 41 42 42 43 44 44 45 45 42 40 41 42 40 39 38 38 36 36 36 34 34 37 37 36 37 39 38 33 30 29 29 30 32 33 30 27 27 24 18 19 23 25 30 36 40 43 45 45 47 49 50 47 46 41 28 27 31 20 12 21 29 37 46 50 52 54 54 55 56 57 59 61 62 59 52 50
29 30 30 30 30 31 34 35 36 38 38 38 41 42 41 43 44 43 44 44 42 41 43 43 41 40 39 38 37 37 36 35 34 35 36 37 38 38 37 34 31 31 31 30 33 35 31 27 26 20 10 8 12 14 20 27 30 32 35 36 38 42 44 44 46 38 24 30 41 30 24 37 44 43 46 48 51 53 55 57 61 63 60 57 55 51 45 45
28 29 29 29 29 31 35 35 36 39 39 38 40 40 41 44 45 44 44 44 43 43 44 44 43 41 41 40 39 38 38 39 38 37 38 40 40 38 37 36 34 34 34 33 35 35 32 32 34 32 27 26 29 32 33 36 37 37 37 37 37 38 40 42 43 39 34 36 40 40 40 44 44 43 46 49 50 52 55 58 61 58 49 44 45 47 49 51
28 29 30 28 26 27 32 34 36 40 41 40 42 42 43 45 45 44 45 46 46 44 42 42 42 41 41 40 40 39 40 40 39 39 41 42 42 42 41 40 40 39 38 37 38 39 38 39 42 43 41 41 43 45 45 45 47 49 49 48 48 46 46 45 42 44 44 34 29 39 44 41 41 44 46 46 46 46 48 51 54 54 51 50 52 53 55 54
29 30 29 28 28 29 31 34 35 37 38 40 43 43 43 44 44 44 44 43 43 41 39 38 37 36 36 34 34 35 35 35 36 37 38 38 39 40 41 41 40 40 40 39 38 38 38 40 44 45 43 40 40 40 41 41 43 45 45 46 48 50 51 52 52 55 54 43 40 48 49 47 49 45 39 39 41 43 48 52 56 60 60 59 57 55 55 54
31 32 31 30 33 35 35 35 35 35 35 37 40 42 42 43 44 43 41 40 40 39 37 36 35 34 33 31 31 32 32 32 33 33 34 34 35 36 39 40 39 38 38 36 33 31 29 31 35 37 36 34 34 36 39 40 41 45 46 46 47 48 50 53 57 60 60 59 60 60 58 57 52 43 41 45 47 49 54 57 59 61 61 61 60 58 57 55
33 34 33 33 35 36 35 36 35 36 36 36 39 41 41 41 41 39 38 39 40 40 38 37 37 36 35 34 34 34 34 34 35 35 35 35 34 33 34 35 37 37 35 32 31 28 26 26 31 34 36 36 38 41 41 41 41 42 41 40 40 42 45 50 53 55 57 59 59 58 55 50 41 38 44 50 51 54 57 58 59 60 60 61 60 57 55 52
34 35 35 35 36 35 35 37 36 38 39 39 41 42 41 41 40 37 36 37 38 40 39 38 39 38 37 38 39 40 40 39 38 38 38 38 36 34 31 31 32 34 33 32 32 32 32 34 37 38 37 39 43 43 42 43 41 40 41 43 45 47 48 48 46 45 47 50 50 48 42 34 28 30 36 40 44 49 52 53 53 52 53 54 54 53 52 49
35 35 35 36 38 37 37 38 38 39 42 42 42 41 41 43 44 42 42 41 40 43 43 40 39 37 34 33 35 36 37 36 36 37 38 37 37 37 37 38 38 40 41 40 40 43 44 41 39 36 33 39 46 45 44 40 32 32 41 46 46 46 46 45 43 42 45 47 42 34 29 27 24 22 23 28 32 34 36 41 44 44 46 46 46 46 45 43
Wind_Direction
264 265 266 267 267 266 266 266 265 266 266 266 267 266 265 263 260 259 259 259 259 259 260 260 260 261 262 264 267 269 271 275 277 277 276 273 276 277 272 270 269 267 267 268 268 267 267 267 266 263 261 261 262 265 266 266 269 269 267 268 268 271 279 285 280 277 283 288 286 286 288 288 291 295 295 293 293 297 297 296 297 298 301 303 300 293 286 280
267 267 269 270 270 271 271 270 270 270 270 270 270 270 270 269 267 266 264 263 263 263 264 263 264 264 264 265 265 267 268 271 274 276 276 275 276 277 275 274 272 272 270 268 269 269 270 271 271 270 268 267 268 269 269 270 272 272 272 271 271 278 283 280 276 277 285 288 287 289 289 288 293 296 293 292 294 296 295 297 301 303 306 303 296 291 288 285
267 267 268 269 270 271 271 271 272 272 272 273 273 273 273 273 272 271 270 269 269 268 268 267 267 267 267 267 267 268 268 270 274 276 275 274 275 275 275 275 275 275 273 271 270 271 273 274 273 273 273 271 271 272 272 273 275 275 272 271 276 285 280 273 277 281 282 284 287 290 289 290 295 295 291 293 296 295 297 307 308 306 307 302 294 290 289 287
266 266 266 267 267 268 269 269 270 271 272 272 273 273 274 274 274 274 274 275 275 275 275 274 273 271 271 271 271 270 271 275 277 277 277 276 275 275 275 276 275 275 275 273 271 272 272 274 275 275 275 273 273 274 274 277 279 275 271 274 281 283 278 277 282 281 279 281 286 290 291 292 293 291 291 296 297 293 305 315 307 304 305 299 293 288 285 283
265 266 266 266 266 267 267 267 268 269 270 271 271 272 272 273 273 274 274 275 276 278 279 279 279 278 277 275 275 275 276 282 281 276 277 277 275 275 276 279 279 278 277 274 271 270 270 273 276 277 277 277 276 274 274 275 275 274 275 277 280 280 279 281 282 279 278 278 281 287 291 292 291 288 291 295 292 293 312 311 304 305 305 298 289 283 281 282
265 265 266 266 266 266 267 267 268 268 269 269 270 270 271 272 273 273 274 275 275 275 277 278 279 279 279 278 278 278 278 281 281 277 277 275 273 272 276 280 281 279 280 279 275 271 271 274 276 278 281 281 278 277 277 275 273 274 276 276 279 281 280 281 281 277 276 276 280 286 288 289 290 291 292 290 287 295 311 308 305 306 302 293 287 284 283 283
265 265 266 266 266 266 267 268 269 270 270 271 271 272 272 272 273 273 274 275 275 275 275 275 276 276 277 276 276 275 274 277 279 278 278 276 274 272 274 278 278 277 278 279 277 274 273 272 275 279 281 281 281 280 280 278 276 275 276 279 282 281 279 282 283 279 277 278 281 284 284 287 291 294 289 284 286 297 310 308 303 301 296 290 289 289 287 285
265 265 266 266 266 267 267 268 269 271 272 272 273 274 274 274 274 274 275 275 276 276 275 276 275 275 275 274 273 271 271 277 279 277 278 278 278 276 275 275 275 275 275 276 275 274 271 272 276 278 279 280 280 279 278 278 278 277 279 283 283 281 280 281 281 281 281 281 283 283 284 287 292 294 286 281 288 299 304 303 297 293 291 289 290 291 290 289
267 267 267 268 268 268 267 268 269 270 271 273 274 275 275 276 276 276 276 276 277 276 277 276 275 275 274 274 274 270 270 277 277 275 277 277 278 278 276 275 275 274 275 275 274 273 272 275 277 277 277 277 276 275 276 276 275 277 281 281 280 280 281 281 281 282 282 282 284 284 285 287 291 291 284 283 296 302 297 296 293 291 290 290 290 291 291 290
269 269 269 270 270 270 269 269 269 270 271 272 273 274 275 276 277 277 277 278 278 278 279 278 278 277 275 275 273 269 272 277 274 274 275 275 277 276 275 274 274 274 274 274 273 273 274 274 273 272 272 272 273 275 275 275 275 277 279 278 278 279 280 279 279 280 281 283 284 284 285 286 287 284 282 287 302 302 293 291 291 290 291 292 290 289 290 288
269 269 270 270 271 271 271 270 270 270 271 271 272 273 274 275 276 277 278 279 279 280 281 281 281 280 278 276 271 272 278 277 273 273 274 274 274 273 273 272 272 273 272 272 272 272 271 270 269 269 270 271 272 275 275 275 276 277 277 276 276 278 279 278 279 281 283 284 285 285 284 283 282 279 282 292 301 297 291 289 290 291 291 290 290 289 288 285
268 268 269 269 270 270 270 270 271 271 271 271 272 272 273 274 275 276 277 278 279 279 280 281 282 281 280 275 271 275 279 274 273 274 274 274 272 270 270 270 271 272 271 270 270 270 270 270 269 268 268 269 271 274 275 275 275 276 277 278 276 277 277 277 280 282 284 286 287 287 283 281 281 280 286 294 297 294 290 289 291 292 292 291 291 291 289 287
268 268 268 268 269 269 270 271 271 271 272 272 272 273 273 274 275 276 277 278 279 279 279 281 281 281 279 274 273 277 277 274 275 277 278 276 272 270 269 269 270 271 271 270 269 269 269 269 269 268 268 269 271 273 274 274 274 275 277 278 278 278 278 279 282 284 287 288 290 289 282 281 285 285 290 294 294 293 292 291 292 293 293 292 292 291 289 288
269 269 269 269 269 269 270 271 271 272 273 273 274 274 275 276 277 277 278 279 280 280 281 281 281 281 279 277 276 277 277 278 279 281 282 278 274 273 271 270 270 270 271 271 271 271 270 269 268 268 267 269 272 273 273 271 272 276 276 275 275 276 277 281 285 289 292 293 293 291 281 284 290 288 290 294 294 293 293 293 293 294 293 292 293 291 288 286
272 272 271 271 271 271 271 272 272 273 273 274 275 276 277 277 278 279 280 280 281 281 282 281 281 281 280 279 279 279 280 282 283 284 282 280 278 275 271 270 270 272 272 272 273 274 273 271 269 268 268 269 272 272 270 268 271 274 273 272 273 274 277 283 286 290 294 294 294 291 284 288 292 289 290 293 293 293 294 294 293 294 294 292 291 290 288 285
274 274 274 274 274 274 274 275 275 276 276 276 277 277 278 279 280 280 280 281 282 282 282 282 282 281 281 282 282 282 282 284 285 284 282 281 279 275 273 272 272 272 272 272 273 274 273 271 270 269 268 269 270 271 269 267 270 270 269 271 273 277 282 286 287 288 289 291 292 291 289 290 291 290 291 293 294 295 295 294 293 293 292 291 290 289 288 286
275 274 274 275 275 276 276 277 277 278 278 279 279 280 280 280 280 280 281 282 283 284 284 284 284 283 282 284 285 285 286 286 284 283 282 281 279 277 276 274 273 271 270 272 273 274 273 271 270 269 269 270 270 269 264 261 267 271 273 275 278 283 286 288 289 287 286 288 292 292 290 290 291 292 293 294 295 296 295 294 292 290 290 289 289 289 288 286
276 275 275 274 274 274 274 275 276 276 277 278 278 279 279 280 279 279 280 281 282 284 284 285 286 285 286 287 288 288 288 286 284 283 282 280 279 278 276 274 272 271 271 272 273 273 272 272 270 267 265 266 265 263 259 262 274 280 283 283 284 286 284 285 287 288 289 289 290 291 289 290 293 295 296 297 296 294 293 292 290 288 287 288 289 289 288 287
277 276 276 275 275 274 274 274 274 274 274 277 278 278 278 278 278 278 279 279 280 282 284 285 284 284 285 287 289 289 287 285 283 281 280 278 276 275 274 272 271 270 270 272 273 271 272 271 267 262 264 266 268 270 271 279 287 288 287 284 283 283 281 283 286 289 294 291 288 288 289 291 294 295 297 297 295 292 290 289 288 288 288 289 290 290 287 287
276 276 276 275 275 275 275 275 275 275 275 276 279 280 281 281 282 281 280 279 280 281 282 284 285 283 284 287 290 289 286 282 280 280 278 276 275 274 272 271 270 269 269 270 271 272 273 269 264 264 269 273 277 280 283 286 287 285 283 281 280 280 280 283 286 291 296 290 287 289 291 292 293 294 296 295 294 290 288 289 290 290 292 292 292 290 288 288
274 274 275 275 275 275 275 276 277 277 277 278 279 280 282 283 285 285 284 281 280 282 282 283 284 284 285 290 290 288 284 280 279 277 275 274 273 273 272 271 270 269 270 270 270 271 270 265 265 271 277 281 282 282 282 282 281 279 279 278 278 278 280 285 288 291 295 289 287 292 293 290 292 293 293 293 291 290 290 291 293 294 295 295 294 292 290 290
274 273 274 274 274 275 276 277 277 278 279 280 280 281 282 282 284 286 286 285 281 280 282 284 285 285 289 292 290 288 282 279 278 274 272 272 270 270 271 270 270 271 271 269 268 268 265 264 270 278 283 284 282 278 277 278 279 277 276 275 275 278 285 288 289 293 297 291 289 295 293 290 292 292 292 292 291 291 293 293 296 298 298 296 295 294 292 290
274 274 274 274 275 275 277 277 278 279 280 280 280 280 281 282 284 285 287 288 285 281 282 285 286 288 292 291 287 283 277 275 276 274 272 270 268 266 266 267 270 272 271 268 267 266 264 268 276 280 280 280 278 277 277 279 279 277 275 273 274 281 286 286 290 297 298 291 292 297 294 290 291 291 291 292 292 294 297 298 301 301 299 299 298 296 292 289
277 276 275 276 276 277 277 278 279 279 280 281 280 280 281 281 283 285 287 289 288 285 284 285 287 289 291 288 281 274 271 273 277 277 274 269 267 265 264 267 269 270 270 271 271 269 269 273 278 278 277 277 278 278 277 278 280 279 277 274 277 285 286 286 293 298 294 290 292 299 297 293 295 294 292 295 297 300 303 304 304 304 304 305 302 297 292 289
279 279 277 276 276 276 277 278 279 279 279 279 279 280 281 282 284 287 291 293 292 292 291 289 288 289 289 282 270 266 269 276 279 278 274 267 265 263 263 265 266 268 272 273 274 273 274 276 278 277 276 276 277 278 277 277 280 280 278 279 284 289 289 290 295 296 292 292 295 302 302 298 300 290 289 298 302 304 307 308 308 311 314 316 312 309 306 296
276 277 277 276 275 275 276 276 277 277 277 277 279 281 282 284 288 291 296 297 295 295 296 290 282 281 284 267 249 266 276 281 282 277 268 263 261 260 260 260 263 268 271 274 275 275 278 281 281 279 279 278 275 276 279 277 275 276 280 288 292 291 290 292 295 291 286 290 294 292 278 289 295 289 290 301 306 307 311 313 316 327 338 327 321 316 309 296
273 274 274 275 274 274 275 275 275 274 275 277 279 281 283 286 289 293 301 302 297 297 294 245 234 262 268 257 266 281 281 279 280 275 265 259 261 263 261 262 267 270 273 275 273 274 282 288 287 285 284 279 273 278 290 284 272 274 286 294 292 292 292 293 293 286 284 289 290 283 260 272 287 289 296 304 306 312 320 328 6 7 320 318 320 308 294 291
273 272 272 273 272 272 273 273 273 273 275 276 277 280 283 285 288 291 301 303 289 295 268 211 259 271 269 270 276 279 278 278 275 268 262 258 261 264 263 267 273 274 276 273 270 275 284 287 287 284 281 281 284 293 301 290 275 279 290 291 287 288 287 286 287 284 288 293 290 280 245 246 281 291 301 307 307 323 341 101 77 327 319 320 314 265 247 280
272 272 272 273 271 270 270 270 271 272 273 274 276 280 281 283 285 286 286 262 261 279 271 266 272 271 272 275 275 275 276 274 268 263 262 261 261 262 263 270 277 279 278 275 274 280 287 287 285 280 278 285 295 299 295 283 278 284 289 285 283 283 281 282 283 283 287 287 278 247 206 217 287 294 301 311 304 321 149 146 332 322 315 309 290 249 251 283
272 271 272 271 270 269 268 267 267 268 271 275 277 278 277 278 278 275 253 245 259 276 276 275 273 273 276 275 270 269 266 261 259 260 261 260 260 260 261 268 276 279 280 277 277 282 287 285 281 280 285 292 295 294 289 283 281 283 284 280 278 276 277 279 276 276 282 275 267 254 253 248 282 294 306 349 294 163 170 291 315 313 294 271 299 284 279 288
274 272 271 271 271 270 269 270 270 270 273 276 276 275 274 272 265 243 229 256 269 277 276 276 276 272 268 261 257 256 251 249 250 251 254 255 254 256 262 269 273 275 275 273 274 280 283 282 283 288 292 293 292 288 284 284 284 283 279 274 276 280 281 279 268 263 221 266 273 268 263 244 242 271 295 315 287 251 273 301 310 295 262 295 310 303 289 289
274 271 270 270 270 270 269 271 273 273 273 273 274 274 273 267 245 235 241 260 277 286 274 270 267 259 242 242 248 247 244 243 242 242 248 254 258 265 270 271 269 269 270 270 273 277 275 275 280 284 284 284 285 281 280 284 283 280 273 265 270 296 298 279 241 230 194 254 272 268 236 228 246 263 273 280 287 288 292 304 305 286 294 302 305 303 290 292
273 270 268 267 267 268 268 269 270 270 271 271 270 269 265 251 244 247 248 251 253 266 276 274 265 260 256 255 254 250 249 251 251 251 258 265 269 271 269 266 262 260 264 270 276 280 279 277 275 273 275 277 275 272 276 284 285 280 272 262 246 221 292 273 246 274 245 258 269 256 221 240 261 272 281 286 293 298 294 292 295 302 305 297 293 296 296 304
273 270 268 267 266 265 265 267 267 268 270 267 263 260 248 234 248 256 255 254 254 261 271 273 269 267 268 269 268 266 266 266 265 265 266 267 266 264 262 259 258 259 264 269 273 276 279 282 279 274 272 273 272 272 277 282 284 282 278 267 246 239 247 247 239 253 266 276 275 233 209 245 268 279 289 295 295 291 286 286 295 299 295 286 289 297 304 308
274 272 270 268 266 264 264 265 267 266 263 261 258 251 241 242 251 259 262 265 264 263 265 267 270 272 274 274 273 273 272 268 266 266 264 260 258 260 260 259 259 258 257 258 264 269 267 271 277 279 279 278 277 280 284 281 276 275 271 253 247 258 259 249 247 253 261 282 271 231 236 259 269 276 280 281 282 283 286 287 286 283 275 277 299 305 307 306
273 272 270 269 267 266 266 267 270 266 259 255 250 244 246 249 253 258 262 266 268 268 266 267 270 272 274 275 273 273 269 262 263 263 258 257 257 257 258 259 259 255 254 256 260 264 262 266 270 271 271 273 274 277 280 278 272 267 260 256 265 272 263 251 253 257 256 266 258 250 259 268 272 278 279 279 283 284 282 273 260 248 251 271 294 304 303 305
272 271 270 269 268 267 262 258 259 260 257 251 243 245 251 254 255 256 259 264 267 270 270 267 265 265 266 269 270 272 268 263 266 259 251 253 255 255 256 258 260 261 265 267 264 260 258 263 267 267 266 266 267 271 273 273 273 266 262 271 275 272 255 246 248 255 243 247 253 244 254 268 273 279 278 277 277 270 259 251 250 251 260 273 285 291 294 302
271 271 270 270 269 266 260 250 246 251 254 248 244 249 253 255 256 257 258 260 264 267 266 261 260 261 261 262 265 270 271 268 261 250 249 250 251 256 259 260 263 267 268 265 261 259 256 260 267 267 266 267 266 268 269 269 270 266 264 268 265 258 251 239 224 229 235 245 254 230 240 256 259 264 271 272 268 264 263 265 267 265 264 270 271 273 290 301
270 270 270 271 269 265 259 248 240 243 245 241 241 247 251 253 255 256 256 258 260 264 264 263 262 262 261 263 266 270 273 270 262 255 255 252 250 257 263 264 266 273 276 269 261 260 255 256 267 264 264 270 271 268 269 269 269 266 262 260 254 254 257 248 238 241 239 248 259 236 231 241 248 258 267 270 271 272 273 270 264 257 257 265 266 273 291 294
269 268 269 269 266 263 260 249 238 236 236 236 239 244 249 253 256 258 259 260 261 262 264 264 264 262 262 264 266 270 273 272 268 262 258 256 260 264 267 269 272 278 281 269 254 255 257 254 263 267 268 273 270 266 269 272 271 265 257 254 251 251 254 257 253 246 245 253 255 246 241 233 243 257 266 269 271 272 274 270 257 251 254 260 266 278 285 285
268 266 267 268 263 261 257 244 236 235 235 237 241 246 250 254 258 261 263 264 264 263 262 263 262 262 263 264 266 269 271 271 270 267 262 261 263 266 268 271 273 274 274 264 255 262 270 269 267 266 263 264 268 270 272 272 270 264 255 250 249 249 253 261 261 250 248 250 249 254 260 240 243 258 267 270 270 269 269 266 261 258 260 263 270 278 282 284
266 265 269 269 265 261 252 243 241 241 240 241 245 249 251 254 257 260 263 264 265 263 262 261 261 262 263 265 268 271 271 270 269 267 265 264 265 267 271 274 274 273 270 268 268 269 273 275 270 263 258 261 269 274 273 270 268 263 254 249 248 249 251 251 248 252 251 251 255 258 261 249 248 258 267 270 269 269 268 267 266 268 270 275 280 283 285 285
266 267 269 267 263 257 247 244 245 244 244 247 251 252 251 254 256 259 261 263 264 262 261 261 262 264 266 268 271 272 271 271 269 268 268 270 271 272 275 278 278 276 270 268 270 270 267 265 263 264 264 265 268 271 269 266 265 261 257 255 253 250 251 251 251 255 256 256 259 260 261 252 249 259 265 267 268 270 270 270 272 277 281 285 288 288 288 288
267 267 265 263 260 251 242 242 245 247 249 251 252 252 252 254 255 257 260 262 262 262 261 262 264 266 268 270 271 270 269 268 268 269 270 271 272 276 279 280 278 272 268 268 271 270 264 256 256 264 269 267 266 268 267 266 264 262 262 264 262 258 256 256 258 261 261 257 256 257 259 254 252 258 263 264 267 271 272 273 278 286 290 293 294 294 294 291
266 266 264 261 256 249 245 246 248 251 253 253 252 252 253 255 255 256 259 261 261 261 262 264 265 267 269 270 269 268 266 264 265 268 270 271 272 276 277 277 272 266 265 266 263 263 263 260 260 262 262 263 265 263 267 274 275 272 269 272 272 269 267 264 262 260 259 256 253 249 256 259 258 259 261 263 268 272 276 281 287 293 295 294 293 293 293 290
266 266 266 263 257 252 251 251 248 247 249 252 254 254 254 254 256 257 259 260 260 260 261 263 265 267 268 267 266 266 265 265 265 266 268 270 272 274 274 272 270 267 268 265 260 263 272 275 272 271 266 263 266 269 272 276 277 276 276 277 278 277 276 271 262 255 257 261 255 250 257 262 261 262 266 270 275 279 284 287 291 294 293 289 286 286 288 287
267 266 267 267 261 256 256 255 249 246 246 247 250 253 255 257 259 260 260 261 261 262 263 263 263 263 264 265 266 266 265 266 266 266 266 268 270 271 271 270 269 268 269 268 264 268 275 277 275 274 270 269 272 276 278 278 276 275 274 275 276 277 275 269 260 256 261 265 262 259 261 264 268 272 276 279 280 281 282 283 283 283 283 283 281 280 281 281
267 267 265 262 260 258 259 260 257 253 250 248 250 253 255 257 259 259 261 263 264 265 264 264 262 261 261 263 263 263 265 265 266 266 267 269 270 270 270 269 269 270 270 269 267 267 270 271 271 272 272 273 275 277 279 280 279 278 277 276 278 278 276 271 268 268 268 266 267 269 269 271 275 278 277 276 276 274 273 273 273 274 276 278 278 278 278 279
266 266 263 259 259 261 261 261 262 259 254 251 252 255 257 258 259 260 262 264 264 264 264 264 266 266 265 263 260 258 259 261 264 267 268 269 269 270 271 270 270 271 270 269 268 265 268 272 272 273 275 275 273 275 277 279 283 285 283 283 283 282 279 276 274 274 272 269 271 273 273 273 275 276 274 272 271 269 269 269 269 270 272 274 277 279 279 280
267 266 264 260 260 263 263 260 259 258 254 249 246 249 254 258 261 264 264 263 262 263 264 265 267 269 269 268 265 261 260 262 265 266 266 266 265 265 267 268 268 267 264 263 263 263 269 275 274 277 283 282 279 279 279 282 286 286 284 284 283 281 280 279 279 279 278 275 276 278 277 275 272 271 271 270 268 267 267 267 267 268 270 272 274 277 278 279
270 268 266 263 261 262 260 258 257 256 254 251 248 248 248 249 253 256 258 258 257 259 263 266 269 270 269 269 267 265 265 265 265 262 260 260 259 259 261 263 265 267 265 264 265 267 272 276 279 283 287 286 282 281 283 286 287 284 282 279 277 277 280 282 283 284 280 277 278 280 281 279 275 269 266 263 264 265 265 265 265 265 266 269 272 275 277 278
271 268 266 264 263 262 259 256 254 251 253 255 255 253 250 248 249 249 251 254 256 258 261 263 264 265 262 259 257 258 259 258 257 256 255 257 260 260 262 265 268 271 272 273 274 275 276 278 280 281 282 282 282 282 285 289 290 283 278 277 276 278 280 281 280 278 274 272 273 272 271 272 274 271 262 255 257 261 262 262 262 263 265 267 269 272 275 276
Height
3192 3192 3192 3191 3191 3191 3191 3191 3190 3190 3190 3189 3189 3189 3189 3188 3188 3188 3187 3187 3187 3187 3187 3186 3186 3186 3185 3185 3185 3184 3184 3184 3183 3183 3183 3182 3182 3181 3181 3181 3180 3180 3180 3179 3179 3178 3178 3178 3178 3177 3177 3176 3176 3175 3175 3174 3174 3173 3172 3171 3170 3169 3169 3169 3168 3167 3165 3165 3165 3164 3163 3162 3162 3162 3160 3158 3157 3157 3155 3155 3155 3155 3155 3154 3153 3152 3151 3150
3191 3191 3191 3191 3190 3190 3190 3190 3189 3189 3189 3188 3188 3188 3187 3187 3187 3186 3186 3186 3186 3185 3185 3185 3185 3184 3184 3184 3183 3183 3183 3182 3182 3182 3182 3181 3181 3180 3180 3179 3179 3179 3179 3178 3178 3177 3177 3177 3177 3176 3176 3176 3175 3175 3174 3174 3173 3172 3171 3169 3168 3169 3168 3168 3167 3166 3165 3164 3163 3163 3162 3161 3161 3160 3158 3156 3156 3156 3153 3153 3153 3153 3153 3152 3150 3149 3149 3148
3190 3190 3190 3189 3189 3189 3189 3188 3188 3188 3188 3187 3187 3186 3186 3185 3185 3185 3185 3184 3184 3184 3184 3184 3183 3183 3183 3183 3182 3182 3181 3181 3181 3181 3180 3180 3179 3179 3178 3178 3178 3178 3177 3177 3177 3176 3176 3176 3175 3175 3175 3174 3174 3173 3173 3173 3172 3171 3169 3167 3167 3168 3167 3166 3166 3165 3164 3162 3161 3161 3160 3159 3160 3158 3156 3154 3153 3153 3152 3152 3152 3151 3151 3150 3148 3147 3146 3146
3189 3188 3188 3188 3188 3188 3187 3187 3187 3186 3186 3186 3186 3185 3185 3184 3184 3183 3183 3183 3183 3183 3182 3182 3182 3182 3181 3181 3181 3180 3180 3180 3180 3179 3179 3179 3178 3178 3177 3177 3177 3176 3176 3176 3175 3175 3174 3174 3174 3173 3173 3173 3172 3172 3171 3171 3170 3168 3167 3166 3166 3167 3164 3165 3165 3163 3162 3161 3159 3159 3158 3158 3158 3156 3154 3153 3151 3150 3151 3151 3150 3149 3149 3148 3146 3145 3144 3143
3187 3187 3187 3186 3186 3186 3186 3185 3185 3185 3185 3184 3184 3183 3183 3182 3182 3182 3182 3181 3181 3181 3181 3181 3180 3180 3180 3180 3179 3179 3178 3179 3179 3178 3177 3177 3176 3176 3176 3175 3175 3175 3175 3174 3174 3173 3173 3172 3172 3171 3170 3171 3170 3169 3170 3170 3168 3165 3164 3164 3165 3164 3162 3163 3164 3162 3161 3159 3158 3158 3157 3156 3156 3154 3153 3152 3149 3149 3150 3150 3148 3147 3147 3145 3144 3142 3141 3141
3185 3185 3185 3184 3184 3184 3184 3184 3184 3183 3183 3183 3182 3182 3181 3181 3180 3180 3180 3180 3180 3180 3179 3179 3179 3178 3178 3178 3178 3177 3177 3177 3177 3176 3176 3176 3175 3175 3174 3174 3174 3173 3173 3173 3172 3172 3171 3171 3170 3169 3168 3168 3168 3167 3167 3168 3166 3163 3161 3162 3163 3162 3160 3160 3161 3160 3159 3157 3157 3157 3155 3154 3153 3152 3151 3148 3148 3149 3150 3148 3146 3145 3144 3143 3141 3140 3140 3139
3183 3183 3183 3182 3182 3182 3182 3182 3182 3182 3181 3181 3180 3180 3179 3179 3179 3178 3178 3178 3178 3178 3177 3177 3177 3177 3176 3176 3176 3175 3174 3176 3176 3174 3174 3174 3174 3174 3173 3173 3172 3172 3171 3171 3171 3170 3169 3168 3168 3168 3166 3165 3165 3165 3165 3164 3163 3160 3159 3160 3160 3160 3157 3158 3158 3156 3156 3155 3155 3155 3153 3152 3151 3149 3147 3144 3146 3149 3148 3146 3144 3143 3142 3141 3140 3139 3138 3137
3181 3181 3180 3180 3180 3180 3180 3180 3180 3180 3179 3179 3178 3178 3177 3177 3177 3176 3176 3176 3176 3175 3175 3175 3175 3175 3175 3174 3174 3172 3172 3174 3174 3172 3172 3172 3172 3172 3171 3171 3170 3170 3169 3169 3168 3168 3167 3166 3166 3166 3164 3163 3163 3162 3162 3161 3160 3158 3157 3157 3157 3156 3155 3155 3154 3153 3153 3152 3152 3152 3151 3150 3149 3146 3141 3141 3145 3148 3147 3144 3143 3142 3140 3139 3138 3138 3137 3136
3179 3178 3178 3178 3178 3178 3178 3178 3178 3177 3177 3177 3176 3176 3175 3175 3174 3174 3174 3174 3174 3173 3173 3173 3173 3173 3172 3172 3172 3169 3170 3172 3172 3170 3170 3170 3170 3170 3169 3169 3168 3168 3167 3167 3166 3165 3165 3164 3164 3163 3162 3161 3160 3159 3159 3159 3157 3156 3156 3155 3154 3153 3153 3152 3151 3150 3149 3149 3149 3148 3148 3148 3147 3143 3135 3138 3145 3146 3145 3143 3141 3140 3139 3138 3137 3136 3135 3134
3177 3176 3176 3176 3176 3175 3175 3175 3175 3175 3175 3174 3174 3173 3173 3172 3172 3171 3171 3171 3171 3170 3170 3170 3170 3170 3170 3171 3169 3166 3169 3171 3169 3169 3168 3168 3168 3168 3167 3166 3166 3166 3165 3164 3164 3163 3163 3162 3161 3160 3159 3158 3157 3157 3157 3156 3154 3154 3153 3152 3151 3151 3150 3149 3148 3148 3146 3147 3146 3144 3145 3145 3145 3139 3131 3136 3143 3143 3141 3140 3139 3138 3137 3137 3135 3134 3133 3131
3175 3174 3174 3174 3174 3173 3173 3173 3173 3173 3172 3172 3171 3171 3170 3170 3169 3169 3169 3168 3168 3168 3167 3167 3167 3167 3167 3167 3165 3164 3168 3168 3166 3167 3166 3166 3167 3165 3165 3164 3163 3163 3162 3162 3162 3161 3160 3159 3158 3158 3157 3156 3155 3155 3154 3153 3152 3151 3150 3149 3149 3148 3147 3145 3145 3145 3144 3143 3143 3141 3140 3141 3141 3135 3130 3135 3140 3139 3137 3137 3136 3135 3134 3134 3132 3131 3130 3129
3172 3172 3172 3172 3171 3171 3171 3171 3171 3170 3170 3170 3169 3168 3168 3167 3167 3166 3166 3166 3165 3165 3164 3164 3164 3163 3163 3163 3162 3163 3165 3164 3163 3164 3164 3164 3164 3163 3162 3161 3161 3160 3159 3159 3158 3158 3157 3156 3155 3155 3155 3154 3154 3153 3151 3150 3149 3148 3147 3145 3145 3145 3143 3142 3142 3142 3141 3140 3140 3138 3134 3135 3136 3131 3131 3135 3136 3135 3133 3132 3133 3132 3131 3131 3129 3128 3127 3126
3169 3169 3169 3169 3169 3168 3168 3168 3168 3168 3168 3167 3166 3166 3165 3165 3164 3164 3164 3163 3162 3162 3162 3161 3161 3160 3159 3158 3160 3161 3161 3160 3160 3161 3161 3161 3160 3160 3159 3158 3158 3157 3156 3155 3155 3155 3154 3153 3152 3152 3153 3152 3152 3151 3148 3147 3145 3145 3145 3143 3141 3141 3138 3138 3140 3139 3138 3136 3136 3134 3127 3126 3131 3129 3130 3133 3132 3131 3129 3128 3128 3128 3128 3126 3126 3124 3123 3123
3166 3166 3166 3166 3166 3166 3166 3165 3165 3165 3165 3164 3164 3163 3163 3162 3162 3161 3161 3160 3159 3159 3159 3158 3158 3157 3155 3155 3158 3158 3157 3158 3158 3158 3157 3157 3157 3157 3156 3155 3154 3153 3152 3152 3152 3151 3150 3149 3149 3149 3150 3150 3150 3149 3145 3143 3143 3143 3141 3139 3138 3136 3134 3136 3138 3136 3135 3133 3132 3130 3121 3118 3125 3126 3128 3130 3128 3126 3123 3123 3123 3123 3123 3122 3121 3120 3117 3118
3163 3163 3163 3163 3163 3163 3163 3163 3162 3162 3162 3161 3161 3160 3160 3159 3159 3158 3157 3157 3156 3155 3155 3155 3154 3153 3151 3152 3155 3154 3155 3155 3155 3155 3154 3153 3154 3153 3152 3151 3150 3150 3149 3149 3148 3148 3146 3145 3145 3146 3147 3147 3148 3145 3141 3139 3141 3141 3137 3134 3135 3133 3130 3134 3137 3136 3132 3128 3127 3125 3115 3113 3119 3122 3125 3125 3123 3122 3119 3118 3118 3117 3117 3116 3116 3115 3113 3112
3160 3160 3160 3160 3160 3160 3160 3160 3159 3159 3159 3158 3158 3157 3157 3156 3156 3155 3154 3154 3153 3152 3152 3151 3151 3150 3147 3149 3151 3151 3152 3152 3152 3152 3151 3151 3151 3150 3149 3147 3147 3147 3146 3145 3145 3144 3143 3142 3142 3143 3144 3145 3146 3142 3137 3136 3138 3137 3133 3130 3132 3131 3128 3129 3132 3134 3131 3124 3121 3120 3112 3108 3113 3117 3120 3121 3119 3117 3114 3112 3112 3111 3110 3110 3110 3109 3108 3107
3157 3157 3157 3157 3157 3157 3157 3157 3157 3157 3156 3156 3155 3155 3154 3153 3153 3152 3151 3150 3149 3149 3148 3147 3147 3146 3144 3146 3147 3148 3149 3149 3149 3149 3149 3149 3147 3146 3146 3144 3144 3143 3142 3142 3141 3140 3139 3138 3138 3139 3140 3141 3142 3139 3134 3134 3134 3133 3132 3128 3128 3130 3127 3124 3125 3129 3129 3121 3116 3114 3108 3103 3106 3112 3115 3117 3115 3111 3108 3107 3106 3105 3104 3104 3104 3103 3103 3102
3155 3155 3155 3155 3154 3154 3154 3154 3154 3154 3154 3153 3152 3152 3151 3150 3150 3149 3148 3147 3146 3146 3144 3144 3144 3142 3140 3143 3144 3146 3146 3146 3145 3145 3146 3145 3144 3143 3142 3141 3141 3140 3139 3138 3138 3137 3136 3135 3134 3135 3136 3137 3137 3135 3130 3130 3131 3130 3130 3127 3125 3125 3124 3122 3120 3123 3124 3118 3112 3109 3102 3097 3100 3105 3108 3110 3111 3106 3102 3101 3099 3099 3098 3098 3098 3097 3097 3096
3152 3152 3152 3152 3151 3151 3151 3151 3151 3151 3151 3150 3149 3149 3148 3147 3146 3145 3145 3144 3143 3143 3141 3140 3141 3139 3138 3140 3142 3142 3143 3142 3142 3142 3142 3142 3140 3139 3138 3137 3136 3135 3135 3135 3134 3133 3133 3131 3129 3129 3131 3132 3133 3132 3128 3128 3129 3127 3126 3124 3122 3120 3118 3118 3117 3118 3120 3112 3106 3106 3097 3093 3095 3098 3101 3103 3105 3102 3096 3095 3093 3093 3093 3092 3092 3091 3091 3090
3149 3149 3149 3149 3148 3148 3148 3148 3148 3148 3148 3148 3147 3146 3145 3143 3142 3141 3141 3140 3140 3140 3138 3137 3137 3136 3135 3137 3138 3138 3138 3138 3138 3138 3138 3137 3137 3135 3134 3133 3131 3131 3131 3132 3131 3129 3130 3125 3121 3123 3126 3128 3130 3130 3126 3125 3126 3124 3122 3120 3118 3115 3111 3113 3114 3116 3118 3105 3097 3102 3094 3088 3090 3092 3095 3097 3097 3096 3093 3090 3088 3088 3089 3087 3087 3085 3084 3084
3146 3146 3146 3146 3145 3145 3145 3145 3145 3145 3145 3145 3145 3143 3142 3141 3139 3137 3136 3135 3136 3136 3134 3134 3133 3130 3133 3134 3134 3133 3132 3132 3134 3134 3133 3133 3132 3130 3129 3128 3126 3126 3128 3129 3127 3126 3124 3116 3114 3121 3124 3126 3126 3126 3124 3121 3121 3120 3119 3116 3113 3111 3106 3108 3112 3112 3115 3102 3089 3095 3089 3080 3085 3086 3088 3091 3089 3089 3089 3087 3084 3083 3084 3083 3082 3080 3078 3078
3143 3143 3143 3142 3142 3142 3142 3142 3142 3141 3141 3141 3141 3140 3139 3138 3136 3134 3130 3128 3131 3133 3130 3130 3129 3126 3129 3131 3129 3128 3126 3125 3128 3128 3129 3128 3128 3127 3125 3123 3122 3122 3124 3125 3123 3121 3115 3109 3114 3121 3122 3122 3121 3121 3120 3118 3118 3116 3115 3113 3107 3108 3104 3102 3106 3108 3111 3100 3086 3089 3081 3071 3078 3080 3081 3085 3083 3083 3084 3083 3081 3079 3079 3078 3076 3076 3074 3073
3139 3139 3139 3139 3138 3139 3138 3138 3138 3138 3137 3137 3137 3137 3136 3135 3133 3131 3127 3122 3122 3127 3127 3126 3124 3122 3125 3126 3124 3123 3120 3119 3121 3122 3124 3123 3122 3123 3121 3119 3119 3118 3119 3120 3119 3115 3109 3108 3115 3119 3119 3117 3116 3117 3118 3116 3114 3111 3110 3109 3103 3106 3105 3097 3099 3104 3105 3097 3087 3086 3073 3061 3070 3073 3073 3079 3078 3078 3079 3078 3078 3076 3073 3072 3071 3071 3070 3068
3135 3136 3136 3135 3135 3135 3135 3135 3135 3135 3134 3133 3133 3133 3132 3131 3130 3128 3125 3118 3113 3118 3123 3121 3119 3118 3119 3120 3118 3117 3115 3116 3117 3117 3120 3119 3118 3119 3117 3117 3116 3114 3114 3115 3114 3109 3105 3109 3114 3115 3114 3113 3112 3113 3115 3113 3109 3105 3105 3106 3102 3103 3104 3096 3097 3099 3097 3094 3090 3086 3067 3048 3058 3065 3064 3072 3073 3071 3073 3071 3072 3072 3069 3067 3065 3065 3065 3064
3132 3132 3132 3132 3132 3131 3132 3131 3131 3131 3131 3130 3130 3130 3129 3128 3127 3125 3122 3116 3108 3109 3116 3115 3114 3113 3114 3114 3113 3113 3112 3114 3115 3114 3115 3114 3114 3114 3113 3114 3112 3110 3111 3112 3110 3104 3103 3109 3111 3109 3109 3109 3109 3108 3111 3112 3105 3098 3099 3104 3102 3100 3100 3097 3098 3096 3090 3088 3088 3090 3073 3044 3045 3057 3058 3063 3067 3064 3066 3065 3064 3065 3064 3063 3063 3062 3063 3062
3129 3129 3129 3129 3129 3128 3128 3128 3128 3128 3127 3127 3127 3127 3127 3126 3125 3123 3121 3115 3105 3104 3108 3108 3108 3109 3109 3109 3110 3111 3111 3111 3111 3111 3111 3111 3110 3110 3109 3109 3109 3108 3108 3109 3107 3100 3100 3106 3107 3105 3105 3105 3106 3105 3107 3109 3102 3094 3095 3101 3101 3098 3098 3096 3097 3095 3088 3085 3084 3090 3086 3057 3039 3046 3053 3056 3059 3058 3059 3060 3059 3060 3060 3060 3061 3061 3061 3061
3126 3126 3126 3126 3126 3126 3125 3125 3125 3124 3124 3125 3124 3124 3124 3123 3123 3122 3121 3114 3103 3100 3103 3103 3104 3105 3106 3107 3107 3108 3108 3108 3108 3108 3109 3108 3107 3107 3106 3106 3107 3106 3106 3106 3103 3097 3098 3102 3102 3102 3102 3102 3103 3102 3103 3105 3101 3094 3094 3098 3098 3097 3096 3093 3094 3093 3087 3084 3081 3081 3088 3074 3043 3036 3047 3051 3052 3054 3054 3055 3056 3057 3058 3057 3057 3057 3057 3058
3122 3122 3122 3122 3123 3123 3123 3123 3122 3121 3121 3121 3121 3122 3121 3121 3122 3121 3123 3117 3102 3097 3101 3101 3102 3102 3103 3105 3105 3105 3105 3105 3105 3104 3105 3105 3104 3104 3103 3103 3105 3104 3104 3103 3097 3095 3098 3099 3098 3099 3099 3098 3098 3099 3100 3102 3099 3094 3094 3096 3094 3094 3093 3092 3091 3090 3087 3083 3076 3073 3083 3082 3053 3034 3043 3047 3047 3051 3051 3052 3054 3055 3055 3054 3053 3054 3054 3055
3117 3117 3118 3118 3119 3120 3120 3120 3118 3118 3118 3118 3118 3119 3118 3120 3119 3119 3123 3115 3098 3094 3098 3098 3099 3100 3100 3102 3102 3102 3102 3102 3102 3101 3101 3102 3100 3101 3101 3101 3102 3101 3101 3100 3093 3093 3096 3095 3094 3094 3095 3095 3095 3096 3096 3097 3096 3093 3094 3093 3092 3092 3089 3090 3089 3086 3089 3082 3071 3071 3078 3081 3058 3034 3041 3046 3044 3048 3047 3049 3052 3052 3053 3051 3051 3052 3051 3052
3113 3113 3114 3114 3114 3116 3117 3115 3115 3114 3114 3115 3115 3115 3116 3116 3117 3119 3118 3104 3093 3094 3095 3094 3095 3097 3097 3098 3098 3098 3099 3099 3099 3099 3099 3098 3097 3098 3098 3099 3100 3098 3098 3096 3091 3091 3094 3092 3090 3090 3090 3091 3092 3093 3092 3092 3093 3092 3092 3089 3089 3089 3086 3088 3086 3084 3089 3078 3067 3069 3074 3079 3063 3036 3038 3045 3043 3046 3045 3046 3050 3050 3050 3049 3049 3051 3050 3049
3109 3109 3110 3109 3110 3112 3112 3112 3111 3111 3112 3112 3112 3112 3113 3113 3115 3115 3105 3092 3091 3093 3091 3091 3092 3093 3093 3094 3094 3095 3096 3096 3096 3097 3096 3095 3095 3095 3095 3096 3096 3095 3094 3092 3089 3090 3090 3088 3087 3086 3087 3088 3089 3089 3088 3089 3090 3089 3089 3087 3086 3086 3084 3084 3081 3083 3086 3073 3064 3066 3068 3074 3061 3035 3036 3044 3044 3047 3045 3044 3047 3047 3047 3047 3047 3048 3047 3046
3106 3106 3106 3106 3106 3107 3108 3109 3109 3109 3109 3109 3110 3110 3110 3111 3109 3101 3091 3090 3094 3091 3088 3090 3090 3090 3091 3091 3092 3092 3092 3093 3093 3094 3093 3093 3092 3092 3093 3093 3093 3093 3089 3087 3087 3086 3084 3084 3086 3084 3084 3086 3086 3085 3085 3085 3087 3086 3085 3086 3087 3087 3085 3082 3080 3081 3080 3068 3061 3064 3066 3065 3048 3032 3038 3043 3043 3046 3044 3043 3044 3044 3044 3044 3044 3044 3043 3043
3102 3102 3102 3102 3102 3103 3104 3105 3106 3106 3106 3107 3108 3107 3108 3108 3098 3087 3086 3092 3093 3088 3088 3089 3088 3089 3089 3088 3090 3090 3090 3091 3091 3092 3091 3090 3089 3089 3090 3090 3090 3090 3086 3084 3084 3081 3078 3078 3081 3082 3081 3083 3083 3082 3082 3081 3082 3082 3081 3083 3085 3086 3085 3081 3079 3078 3072 3063 3059 3063 3065 3056 3038 3032 3038 3040 3041 3043 3042 3042 3042 3041 3041 3041 3040 3040 3040 3040
3098 3098 3097 3098 3098 3098 3099 3101 3102 3103 3104 3104 3104 3104 3105 3100 3088 3082 3085 3088 3088 3088 3088 3087 3086 3087 3086 3086 3087 3087 3088 3089 3088 3089 3088 3088 3087 3086 3086 3087 3087 3087 3085 3083 3081 3078 3075 3072 3074 3078 3079 3080 3079 3079 3080 3079 3078 3077 3077 3079 3079 3079 3079 3076 3073 3069 3063 3059 3059 3062 3059 3047 3036 3035 3037 3038 3039 3040 3040 3041 3040 3038 3038 3037 3037 3037 3037 3037
3093 3092 3093 3093 3093 3094 3095 3096 3097 3099 3100 3100 3101 3101 3098 3089 3082 3082 3083 3084 3085 3086 3085 3084 3084 3083 3082 3082 3082 3083 3085 3084 3084 3086 3085 3085 3084 3083 3084 3084 3085 3085 3084 3082 3079 3076 3074 3069 3070 3073 3075 3076 3076 3077 3078 3077 3075 3073 3073 3074 3072 3072 3072 3068 3065 3062 3060 3059 3057 3054 3046 3037 3035 3034 3035 3036 3036 3037 3038 3038 3037 3035 3034 3034 3033 3033 3033 3033
3087 3087 3087 3088 3089 3090 3092 3093 3094 3094 3095 3095 3096 3093 3087 3081 3080 3081 3081 3081 3082 3082 3082 3082 3082 3080 3078 3077 3077 3079 3080 3080 3081 3082 3081 3081 3081 3080 3081 3081 3082 3083 3081 3080 3077 3075 3071 3066 3068 3069 3068 3071 3073 3073 3074 3074 3072 3071 3069 3068 3066 3067 3067 3063 3059 3058 3059 3056 3050 3046 3037 3032 3034 3031 3030 3033 3032 3033 3034 3032 3032 3031 3030 3031 3030 3030 3031 3030
3081 3082 3082 3083 3084 3087 3089 3091 3091 3090 3090 3091 3088 3082 3076 3075 3077 3078 3078 3078 3079 3079 3080 3079 3078 3077 3076 3074 3074 3075 3075 3076 3077 3077 3077 3078 3076 3076 3077 3078 3079 3079 3079 3079 3075 3073 3068 3062 3065 3066 3063 3065 3067 3068 3069 3069 3069 3067 3066 3065 3064 3063 3062 3061 3057 3055 3056 3050 3041 3039 3034 3031 3033 3028 3025 3028 3028 3029 3030 3028 3028 3028 3027 3028 3028 3028 3028 3028
3076 3076 3076 3078 3080 3082 3084 3086 3087 3086 3086 3084 3079 3074 3071 3071 3072 3074 3075 3076 3075 3076 3076 3075 3074 3073 3073 3072 3072 3072 3073 3073 3074 3073 3074 3074 3073 3072 3073 3074 3075 3075 3077 3077 3072 3069 3067 3061 3060 3063 3060 3059 3062 3063 3063 3063 3065 3063 3061 3063 3062 3059 3055 3055 3053 3050 3049 3042 3034 3033 3030 3029 3031 3025 3020 3022 3023 3024 3026 3026 3025 3025 3025 3025 3025 3025 3026 3026
3071 3071 3070 3073 3075 3076 3078 3080 3081 3082 3080 3076 3072 3069 3067 3067 3068 3070 3072 3072 3072 3072 3070 3070 3070 3069 3069 3069 3068 3069 3070 3069 3070 3071 3070 3070 3069 3069 3070 3070 3071 3071 3072 3073 3068 3065 3065 3060 3056 3058 3059 3055 3055 3058 3056 3056 3059 3058 3057 3057 3057 3054 3050 3049 3046 3043 3041 3036 3030 3028 3024 3022 3023 3021 3018 3016 3016 3018 3020 3021 3021 3021 3021 3021 3021 3022 3022 3023
3067 3066 3065 3068 3070 3071 3073 3074 3075 3076 3073 3069 3066 3064 3062 3062 3064 3066 3067 3068 3068 3067 3066 3066 3066 3066 3064 3065 3065 3065 3065 3065 3066 3067 3066 3065 3064 3064 3066 3066 3067 3069 3069 3067 3065 3062 3061 3058 3053 3054 3057 3053 3049 3050 3050 3050 3053 3052 3051 3051 3050 3049 3046 3043 3040 3038 3036 3030 3025 3022 3016 3013 3017 3019 3015 3011 3012 3015 3016 3017 3017 3017 3017 3017 3018 3018 3018 3019
3063 3061 3060 3064 3065 3067 3069 3068 3068 3068 3065 3063 3062 3060 3059 3060 3061 3062 3062 3062 3062 3062 3063 3062 3062 3061 3060 3060 3060 3060 3061 3060 3060 3061 3059 3059 3060 3059 3060 3062 3063 3066 3065 3062 3061 3060 3058 3055 3051 3050 3052 3048 3044 3045 3047 3047 3048 3047 3045 3045 3046 3044 3044 3041 3035 3033 3032 3024 3019 3017 3009 3006 3014 3017 3011 3008 3008 3011 3013 3013 3013 3012 3013 3014 3014 3015 3015 3015
3057 3056 3057 3060 3060 3062 3064 3062 3061 3061 3058 3056 3057 3057 3057 3057 3057 3057 3057 3057 3057 3057 3058 3058 3057 3057 3056 3056 3056 3057 3057 3054 3054 3054 3052 3052 3054 3054 3055 3057 3059 3061 3061 3057 3056 3056 3055 3051 3047 3044 3044 3042 3041 3044 3045 3043 3042 3043 3041 3041 3041 3040 3039 3037 3029 3027 3026 3019 3016 3014 3004 3000 3009 3012 3008 3006 3006 3006 3007 3008 3007 3007 3009 3010 3011 3012 3012 3011
3052 3053 3055 3056 3056 3058 3059 3056 3056 3055 3052 3051 3053 3053 3054 3053 3053 3053 3053 3052 3052 3052 3053 3052 3052 3052 3052 3052 3053 3053 3052 3049 3047 3047 3047 3046 3047 3048 3050 3053 3054 3055 3055 3052 3051 3051 3050 3047 3042 3038 3037 3037 3037 3039 3039 3037 3037 3036 3034 3036 3035 3032 3032 3029 3023 3023 3020 3015 3015 3011 2999 2997 3003 3006 3005 3004 3003 3002 3002 3003 3003 3003 3004 3005 3005 3006 3007 3007
3048 3049 3050 3051 3051 3053 3052 3050 3050 3049 3047 3049 3049 3049 3049 3049 3048 3048 3048 3047 3047 3047 3047 3047 3048 3048 3048 3048 3048 3048 3048 3045 3042 3042 3043 3042 3041 3043 3046 3048 3049 3049 3049 3048 3046 3044 3042 3040 3039 3036 3034 3032 3032 3033 3032 3031 3032 3028 3027 3030 3028 3026 3028 3024 3021 3021 3014 3011 3014 3006 2994 2994 3000 3001 3001 3001 2999 2998 2997 2997 2999 3000 3000 3000 2998 2997 2998 2998
3044 3044 3045 3046 3046 3046 3044 3045 3046 3045 3044 3045 3044 3044 3045 3044 3043 3044 3044 3043 3043 3043 3042 3042 3043 3043 3043 3044 3043 3042 3043 3042 3039 3038 3039 3038 3037 3039 3041 3042 3043 3043 3043 3043 3041 3039 3036 3035 3035 3033 3031 3029 3028 3028 3028 3028 3027 3024 3023 3025 3024 3024 3024 3020 3019 3016 3007 3004 3007 2998 2988 2990 2996 2997 2996 2997 2996 2994 2993 2993 2994 2996 2996 2993 2990 2986 2987 2989
3040 3039 3040 3040 3040 3040 3039 3041 3042 3040 3040 3041 3039 3039 3040 3038 3038 3040 3039 3038 3038 3039 3038 3038 3039 3039 3038 3038 3037 3036 3037 3037 3036 3034 3034 3034 3034 3035 3036 3037 3038 3037 3037 3037 3036 3034 3031 3030 3030 3029 3026 3025 3024 3023 3026 3026 3024 3021 3021 3020 3020 3021 3020 3017 3013 3007 3002 2999 2995 2991 2988 2987 2989 2992 2992 2992 2994 2993 2993 2992 2990 2988 2984 2983 2983 2981 2980 2980
3035 3035 3036 3036 3035 3035 3034 3035 3036 3035 3035 3037 3034 3033 3034 3033 3033 3034 3033 3032 3032 3034 3034 3033 3034 3035 3033 3033 3033 3031 3031 3032 3031 3030 3029 3030 3030 3030 3031 3032 3032 3032 3032 3032 3031 3030 3027 3023 3024 3023 3020 3021 3021 3019 3022 3022 3019 3017 3016 3015 3015 3015 3014 3013 3005 2999 3001 2996 2985 2986 2990 2984 2983 2989 2989 2988 2990 2990 2989 2986 2982 2978 2974 2974 2976 2974 2971 2970
3031 3031 3032 3032 3030 3030 3029 3029 3031 3030 3031 3031 3029 3028 3030 3029 3028 3028 3028 3028 3027 3029 3029 3027 3027 3029 3028 3029 3029 3027 3026 3027 3025 3025 3025 3025 3025 3025 3025 3026 3026 3026 3027 3027 3026 3026 3022 3018 3019 3018 3015 3016 3017 3015 3016 3016 3012 3011 3011 3009 3010 3009 3007 3005 2998 2996 2999 2991 2980 2983 2986 2982 2982 2985 2982 2981 2982 2982 2981 2978 2974 2971 2968 2967 2967 2965 2964 2964
3026 3026 3027 3027 3025 3026 3026 3026 3026 3026 3026 3027 3025 3024 3025 3024 3023 3024 3025 3024 3023 3024 3024 3022 3022 3023 3024 3024 3024 3022 3022 3022 3020 3021 3020 3020 3021 3020 3019 3021 3021 3020 3021 3021 3021 3021 3018 3014 3014 3014 3010 3010 3012 3011 3011 3010 3007 3005 3005 3004 3004 3002 3000 2997 2992 2992 2992 2984 2979 2980 2980 2979 2980 2975 2973 2975 2974 2973 2973 2970 2967 2965 2964 2962 2961 2959 2959 2958
3021 3021 3022 3021 3020 3022 3022 3021 3022 3021 3021 3022 3021 3019 3020 3019 3019 3020 3021 3020 3018 3018 3019 3018 3017 3018 3019 3019 3018 3017 3017 3017 3016 3016 3016 3015 3016 3016 3015 3016 3016 3015 3016 3016 3016 3017 3014 3010 3010 3010 3005 3003 3006 3006 3006 3006 3003 3000 2998 2998 2997 2994 2992 2990 2988 2988 2984 2977 2975 2975 2973 2972 2971 2966 2966 2967 2964 2964 2964 2962 2960 2959 2958 2956 2954 2953 2952 2950
3016 3015 3016 3016 3015 3018 3018 3016 3017 3016 3015 3016 3015 3014 3016 3015 3015 3016 3016 3015 3014 3014 3015 3014 3012 3013 3014 3013 3013 3012 3012 3012 3012 3012 3012 3011 3011 3013 3012 3012 3012 3011 3010 3011 3011 3012 3010 3006 3006 3008 3002 2997 3001 3002 3000 3001 2999 2995 2993 2991 2989 2987 2985 2984 2984 2983 2978 2972 2969 2969 2966 2963 2962 2961 2961 2959 2957 2957 2957 2954 2953 2952 2951 2950 2948 2946 2945 2944
3011 3010 3011 3010 3009 3012 3013 3011 3012 3011 3008 3009 3009 3009 3011 3010 3010 3011 3011 3010 3009 3009 3009 3009 3008 3008 3009 3008 3008 3006 3006 3007 3007 3007 3007 3006 3006 3007 3007 3007 3008 3007 3006 3007 3006 3006 3006 3003 3004 3006 2999 2992 2995 2996 2995 2997 2993 2986 2984 2983 2982 2982 2979 2977 2977 2975 2971 2967 2964 2962 2960 2958 2957 2957 2956 2954 2953 2952 2950 2947 2946 2945 2945 2944 2942 2941 2940 2938